| time (UTC) | temp F | wind direction | speed MPH | gust MPH | rain 1hr in | rain 24hr in | rain mn in | humidity % | barometer mb |
| 20260905021900 | 82 | 136 | 0.0 | 1.0 | 0.00 | 0.00 | 0.00 | 69 | 1013.0 |
| 20260905021508 | 81 | 134 | 0.0 | 2.0 | 0.00 | 0.00 | 0.00 | 68 | 1013.7 |
| 20260905020837 | 82 | 124 | 0.0 | 1.0 | 0.00 | 0.00 | 0.00 | 69 | 1013.0 |
| 20260905020028 | 82 | 113 | 0.0 | 2.0 | 0.00 | 0.00 | 0.00 | 68 | 1013.8 |
| 20260905015810 | 82 | 138 | 0.0 | 0.0 | 0.00 | 0.00 | 0.00 | 68 | 1013.0 |
| 20260905014531 | 82 | 126 | 0.0 | 2.0 | 0.00 | 0.00 | 0.00 | 68 | 1013.8 |
| 20260905013033 | 81 | 119 | 0.0 | 0.0 | 0.00 | 0.00 | 0.00 | 71 | 1013.6 |
| 20260905012620 | 82 | 116 | 0.0 | 0.0 | 0.00 | 0.00 | 0.00 | 71 | 1012.7 |
| 20260905011529 | 83 | 119 | 0.0 | 0.0 | 0.00 | 0.00 | 0.00 | 67 | 1013.4 |
| 20260905010529 | 84 | 116 | 0.0 | 0.0 | 0.00 | 0.00 | 0.00 | 67 | 1012.5 |
| 20260905010024 | 84 | 119 | 0.0 | 0.0 | 0.00 | 0.00 | 0.00 | 65 | 1013.3 |
| 20260905005520 | 84 | 116 | 0.0 | 0.0 | 0.00 | 0.00 | 0.00 | 66 | 1012.4 |
| 20260905004529 | 85 | 116 | 0.0 | 1.0 | 0.00 | 0.00 | 0.00 | 63 | 1012.4 |
| 20260905004520 | 85 | 148 | 0.0 | 2.0 | 0.00 | 0.00 | 0.00 | 63 | 1013.3 |
| 20260905003517 | 86 | 122 | 0.0 | 0.0 | 0.00 | 0.00 | 0.00 | 62 | 1012.5 |
| 20260905003027 | 86 | 126 | 0.0 | 2.0 | 0.00 | 0.00 | 0.00 | 60 | 1013.2 |
| 20260905002445 | 87 | 184 | 0.0 | 0.0 | 0.00 | 0.00 | 0.00 | 60 | 1012.4 |
| 20260905001511 | 87 | 161 | 2.0 | 5.0 | 0.00 | 0.00 | 0.00 | 58 | 1013.1 |
| 20260905001429 | 88 | 85 | 0.0 | 4.0 | 0.00 | 0.00 | 0.00 | 59 | 1012.2 |
| 20260905000402 | 88 | 127 | 0.0 | 3.0 | 0.00 | 0.00 | 0.00 | 58 | 1012.0 |
| 20260905000044 | 88 | 151 | 1.0 | 5.0 | 0.00 | 0.00 | 0.00 | 57 | 1012.7 |
| 20260904235329 | 89 | 148 | 0.0 | 3.0 | 0.00 | 0.00 | 0.00 | 57 | 1011.8 |
| 20260904234537 | 89 | 159 | 1.0 | 5.0 | 0.00 | 0.00 | 0.00 | 53 | 1012.6 |
| 20260904234352 | 89 | 124 | 1.0 | 4.0 | 0.00 | 0.00 | 0.00 | 54 | 1011.8 |
| 20260904233406 | 89 | 138 | 0.0 | 4.0 | 0.00 | 0.00 | 0.00 | 55 | 1011.8 |
| 20260904233005 | 89 | 118 | 1.0 | 3.0 | 0.00 | 0.00 | 0.00 | 54 | 1012.6 |
| 20260904232425 | 89 | 70 | 0.0 | 5.0 | 0.00 | 0.00 | 0.00 | 53 | 1011.9 |
| 20260904231535 | 89 | 136 | 1.0 | 7.0 | 0.00 | 0.00 | 0.00 | 50 | 1012.8 |
| 20260904231438 | 89 | 122 | 1.0 | 5.0 | 0.00 | 0.00 | 0.00 | 50 | 1011.9 |
| 20260904230459 | 89 | 140 | 1.0 | 5.0 | 0.00 | 0.00 | 0.00 | 53 | 1011.8 |
| 20260904230048 | 89 | 126 | 2.0 | 5.0 | 0.00 | 0.00 | 0.00 | 54 | 1012.7 |
| 20260904225428 | 89 | 156 | 0.0 | 6.0 | 0.00 | 0.00 | 0.00 | 57 | 1011.9 |
| 20260904224521 | 89 | 134 | 0.0 | 4.0 | 0.00 | 0.00 | 0.00 | 58 | 1012.8 |
| 20260904224433 | 89 | 132 | 1.0 | 6.0 | 0.00 | 0.00 | 0.00 | 57 | 1012.0 |
| 20260904223424 | 88 | 138 | 0.0 | 5.0 | 0.00 | 0.00 | 0.00 | 57 | 1012.2 |
| 20260904223019 | 88 | 68 | 1.0 | 9.0 | 0.00 | 0.00 | 0.00 | 59 | 1013.1 |
| 20260904222411 | 89 | 198 | 0.0 | 5.0 | 0.00 | 0.00 | 0.00 | 59 | 1012.3 |
| 20260904221515 | 89 | 110 | 2.0 | 7.0 | 0.00 | 0.00 | 0.00 | 58 | 1013.1 |
| 20260904220200 | 89 | 43 | 1.0 | 4.0 | 0.00 | 0.00 | 0.00 | 59 | 1012.5 |
| 20260904220032 | 89 | 126 | 3.0 | 5.0 | 0.00 | 0.00 | 0.00 | 59 | 1013.2 |
| 20260904215217 | 89 | 58 | 0.0 | 4.0 | 0.00 | 0.00 | 0.00 | 61 | 1012.5 |
| 20260904214510 | 88 | 140 | 1.0 | 6.0 | 0.00 | 0.00 | 0.00 | 61 | 1013.6 |
| 20260904214222 | 89 | 117 | 1.0 | 4.0 | 0.00 | 0.00 | 0.00 | 61 | 1012.8 |
| 20260904213007 | 87 | 183 | 1.0 | 3.0 | 0.00 | 0.00 | 0.00 | 63 | 1013.6 |
| 20260904212057 | 87 | 115 | 0.0 | 4.0 | 0.00 | 0.00 | 0.00 | 64 | 1013.1 |
| 20260904211534 | 86 | 161 | 1.0 | 6.0 | 0.00 | 0.00 | 0.00 | 65 | 1014.0 |
| 20260904211110 | 87 | 164 | 0.0 | 3.0 | 0.00 | 0.00 | 0.00 | 65 | 1013.3 |
| 20260904210033 | 86 | 146 | 1.0 | 4.0 | 0.00 | 0.00 | 0.00 | 67 | 1014.1 |
| 20260904204527 | 86 | 131 | 2.0 | 4.0 | 0.00 | 0.00 | 0.00 | 68 | 1014.2 |
| 20260904203722 | 86 | 98 | 0.0 | 2.0 | 0.00 | 0.00 | 0.00 | 68 | 1013.5 |
| 20260904203026 | 86 | 162 | 0.0 | 4.0 | 0.00 | 0.00 | 0.00 | 68 | 1014.3 |
| 20260904202647 | 87 | 75 | 0.0 | 1.0 | 0.00 | 0.00 | 0.00 | 69 | 1013.6 |
| 20260904201642 | 87 | 112 | 0.0 | 5.0 | 0.00 | 0.00 | 0.00 | 69 | 1013.6 |
| 20260904201521 | 86 | 134 | 2.0 | 7.0 | 0.00 | 0.00 | 0.00 | 68 | 1014.4 |
| 20260904200701 | 86 | 61 | 0.0 | 4.0 | 0.00 | 0.00 | 0.00 | 69 | 1013.7 |
| 20260904200039 | 86 | 135 | 2.0 | 6.0 | 0.00 | 0.00 | 0.00 | 68 | 1014.6 |
| 20260904195706 | 86 | 117 | 1.0 | 4.0 | 0.00 | 0.00 | 0.00 | 70 | 1013.8 |
| 20260904194722 | 86 | 132 | 0.0 | 2.0 | 0.00 | 0.00 | 0.00 | 71 | 1013.7 |
| 20260904194512 | 85 | 158 | 1.0 | 2.0 | 0.00 | 0.00 | 0.00 | 70 | 1014.6 |
| 20260904193011 | 85 | 165 | 2.0 | 4.0 | 0.00 | 0.00 | 0.00 | 70 | 1014.9 |
| 20260904192636 | 86 | 190 | 0.0 | 2.0 | 0.00 | 0.00 | 0.00 | 72 | 1014.0 |
| 20260904191614 | 86 | 122 | 0.0 | 5.0 | 0.00 | 0.00 | 0.00 | 71 | 1014.1 |
| 20260904191532 | 85 | 115 | 1.0 | 7.0 | 0.00 | 0.00 | 0.00 | 70 | 1015.1 |
| 20260904190031 | 86 | 109 | 1.0 | 8.0 | 0.00 | 0.00 | 0.00 | 69 | 1015.0 |
| 20260904185433 | 86 | 124 | 0.0 | 6.0 | 0.00 | 0.00 | 0.00 | 71 | 1014.2 |
| 20260904184600 | 85 | 115 | 1.0 | 4.0 | 0.00 | 0.00 | 0.00 | 71 | 1015.2 |
| 20260904184437 | 86 | 108 | 0.0 | 3.0 | 0.00 | 0.00 | 0.00 | 72 | 1014.3 |
| 20260904183419 | 85 | 96 | 1.0 | 4.0 | 0.00 | 0.00 | 0.00 | 72 | 1014.5 |
| 20260904183025 | 85 | 150 | 2.0 | 6.0 | 0.00 | 0.00 | 0.00 | 71 | 1015.3 |
| 20260904182403 | 86 | 104 | 0.0 | 4.0 | 0.00 | 0.00 | 0.00 | 72 | 1014.6 |
| 20260904181528 | 85 | 99 | 1.0 | 4.0 | 0.00 | 0.00 | 0.00 | 71 | 1015.4 |
| 20260904181358 | 85 | 60 | 0.0 | 3.0 | 0.00 | 0.00 | 0.00 | 71 | 1014.6 |
| 20260904180353 | 85 | 81 | 0.0 | 3.0 | 0.00 | 0.00 | 0.00 | 72 | 1014.6 |
| 20260904180024 | 85 | 98 | 1.0 | 3.0 | 0.00 | 0.00 | 0.00 | 71 | 1015.4 |
| 20260904175354 | 85 | 156 | 0.0 | 4.0 | 0.00 | 0.00 | 0.00 | 72 | 1014.7 |
| 20260904174534 | 85 | 66 | 2.0 | 6.0 | 0.00 | 0.00 | 0.00 | 70 | 1015.5 |
| 20260904174345 | 85 | 98 | 0.0 | 5.0 | 0.00 | 0.00 | 0.00 | 71 | 1014.7 |
| 20260904173320 | 86 | 139 | 0.0 | 5.0 | 0.00 | 0.00 | 0.00 | 72 | 1014.9 |
| 20260904173013 | 85 | 128 | 1.0 | 7.0 | 0.00 | 0.00 | 0.00 | 71 | 1015.7 |
| 20260904172306 | 85 | 142 | 0.0 | 5.0 | 0.00 | 0.00 | 0.00 | 72 | 1014.9 |
| 20260904171533 | 85 | 127 | 2.0 | 5.0 | 0.00 | 0.00 | 0.00 | 71 | 1015.8 |
| 20260904171230 | 85 | 114 | 1.0 | 5.0 | 0.00 | 0.00 | 0.00 | 72 | 1015.0 |
| 20260904170229 | 85 | 136 | 0.0 | 3.0 | 0.00 | 0.00 | 0.00 | 72 | 1015.1 |
| 20260904170045 | 85 | 104 | 1.0 | 4.0 | 0.00 | 0.00 | 0.00 | 72 | 1016.0 |
| 20260904165159 | 84 | 129 | 0.0 | 3.0 | 0.00 | 0.00 | 0.00 | 75 | 1015.2 |
| 20260904164531 | 83 | 106 | 1.0 | 3.0 | 0.00 | 0.00 | 0.00 | 75 | 1016.1 |
| 20260904164137 | 84 | 99 | 0.0 | 2.0 | 0.00 | 0.00 | 0.00 | 75 | 1015.3 |
| 20260904163123 | 84 | 160 | 0.0 | 5.0 | 0.00 | 0.00 | 0.00 | 75 | 1015.2 |
| 20260904163042 | 84 | 166 | 1.0 | 7.0 | 0.00 | 0.00 | 0.00 | 75 | 1016.1 |
| 20260904162146 | 84 | 107 | 0.0 | 5.0 | 0.00 | 0.00 | 0.00 | 76 | 1015.5 |
| 20260904161526 | 83 | 107 | 1.0 | 4.0 | 0.00 | 0.00 | 0.00 | 77 | 1016.2 |
| 20260904161157 | 84 | 51 | 0.0 | 1.0 | 0.00 | 0.00 | 0.00 | 77 | 1015.4 |
| 20260904160027 | 82 | 195 | 0.0 | 5.0 | 0.00 | 0.00 | 0.00 | 81 | 1016.1 |
| 20260904155048 | 83 | 143 | 0.0 | 4.0 | 0.00 | 0.00 | 0.00 | 80 | 1015.4 |
| 20260904154524 | 81 | 125 | 1.0 | 5.0 | 0.00 | 0.00 | 0.00 | 80 | 1016.0 |
| 20260904153020 | 81 | 174 | 1.0 | 3.0 | 0.00 | 0.00 | 0.00 | 82 | 1015.9 |
| 20260904152945 | 81 | 170 | 0.0 | 2.0 | 0.00 | 0.00 | 0.00 | 83 | 1015.1 |
| 20260904151924 | 81 | 184 | 0.0 | 0.0 | 0.00 | 0.00 | 0.00 | 84 | 1015.1 |
| 20260904151534 | 80 | 101 | 0.0 | 4.0 | 0.00 | 0.00 | 0.00 | 84 | 1015.9 |
| 20260904150922 | 80 | 162 | 0.0 | 1.0 | 0.00 | 0.00 | 0.00 | 85 | 1014.9 |
| 20260904150036 | 79 | 134 | 0.0 | 4.0 | 0.00 | 0.00 | 0.00 | 86 | 1015.8 |
| 20260904145928 | 80 | 131 | 0.0 | 3.0 | 0.00 | 0.00 | 0.00 | 86 | 1015.0 |
| 20260904144936 | 80 | 72 | 0.0 | 0.0 | 0.00 | 0.00 | 0.00 | 86 | 1014.9 |
| 20260904144530 | 80 | 142 | 1.0 | 4.0 | 0.00 | 0.00 | 0.00 | 85 | 1015.7 |
| 20260904143946 | 80 | 171 | 0.0 | 3.0 | 0.00 | 0.00 | 0.00 | 86 | 1014.9 |
| 20260904143010 | 79 | 137 | 0.0 | 4.0 | 0.00 | 0.00 | 0.00 | 85 | 1015.6 |
| 20260904142925 | 80 | 176 | 0.0 | 3.0 | 0.00 | 0.00 | 0.00 | 86 | 1014.8 |
| 20260904141943 | 79 | 126 | 0.0 | 4.0 | 0.00 | 0.00 | 0.00 | 86 | 1014.9 |
| 20260904141530 | 79 | 169 | 2.0 | 6.0 | 0.00 | 0.00 | 0.00 | 86 | 1015.7 |
| 20260904140004 | 79 | 119 | 1.0 | 7.0 | 0.00 | 0.00 | 0.00 | 86 | 1015.5 |
| 20260904135835 | 79 | 97 | 1.0 | 5.0 | 0.00 | 0.00 | 0.00 | 87 | 1014.8 |
| 20260904134824 | 79 | 104 | 1.0 | 4.0 | 0.00 | 0.00 | 0.00 | 87 | 1014.7 |
| 20260904134526 | 79 | 166 | 2.0 | 6.0 | 0.00 | 0.00 | 0.00 | 86 | 1015.4 |
| 20260904133805 | 79 | 127 | 1.0 | 4.0 | 0.00 | 0.00 | 0.00 | 87 | 1014.6 |
| 20260904133025 | 78 | 156 | 1.0 | 6.0 | 0.00 | 0.00 | 0.00 | 86 | 1015.2 |
| 20260904132819 | 79 | 106 | 0.0 | 6.0 | 0.00 | 0.00 | 0.00 | 87 | 1014.5 |
| 20260904131753 | 79 | 140 | 1.0 | 6.0 | 0.00 | 0.00 | 0.00 | 87 | 1014.6 |
| 20260904131535 | 78 | 128 | 4.0 | 8.0 | 0.00 | 0.00 | 0.00 | 87 | 1015.3 |
| 20260904130744 | 79 | 155 | 0.0 | 6.0 | 0.00 | 0.00 | 0.00 | 87 | 1014.5 |
| 20260904130019 | 78 | 80 | 1.0 | 8.0 | 0.00 | 0.00 | 0.00 | 87 | 1015.1 |
| 20260904125757 | 79 | 122 | 1.0 | 6.0 | 0.00 | 0.00 | 0.00 | 87 | 1014.3 |
| 20260904124759 | 79 | 123 | 0.0 | 1.0 | 0.00 | 0.00 | 0.00 | 87 | 1014.0 |
| 20260904124522 | 78 | 201 | 1.0 | 5.0 | 0.00 | 0.00 | 0.00 | 86 | 1014.8 |
| 20260904123810 | 79 | 122 | 0.0 | 3.0 | 0.00 | 0.00 | 0.00 | 87 | 1014.0 |
| 20260904123010 | 78 | 112 | 1.0 | 3.0 | 0.00 | 0.00 | 0.00 | 86 | 1014.7 |
| 20260904122751 | 79 | 147 | 0.0 | 1.0 | 0.00 | 0.00 | 0.00 | 87 | 1014.0 |
| 20260904121721 | 78 | 91 | 0.0 | 3.0 | 0.00 | 0.00 | 0.00 | 87 | 1013.9 |
| 20260904121509 | 78 | 111 | 2.0 | 6.0 | 0.00 | 0.00 | 0.00 | 86 | 1014.6 |
| 20260904120709 | 78 | 73 | 0.0 | 3.0 | 0.00 | 0.00 | 0.00 | 87 | 1013.8 |
| 20260904120011 | 78 | 136 | 1.0 | 3.0 | 0.00 | 0.00 | 0.00 | 86 | 1014.4 |
| 20260904115733 | 78 | 127 | 0.0 | 1.0 | 0.00 | 0.00 | 0.00 | 87 | 1013.7 |
| 20260904114750 | 78 | 124 | 0.0 | 2.0 | 0.00 | 0.00 | 0.00 | 86 | 1013.5 |
| 20260904114527 | 78 | 132 | 0.0 | 4.0 | 0.00 | 0.00 | 0.00 | 86 | 1014.2 |
| 20260904113715 | 78 | 107 | 0.0 | 3.0 | 0.00 | 0.00 | 0.00 | 86 | 1013.3 |
| 20260904113030 | 78 | 162 | 0.0 | 3.0 | 0.00 | 0.00 | 0.00 | 85 | 1013.9 |
| 20260904112710 | 79 | 93 | 0.0 | 3.0 | 0.00 | 0.00 | 0.00 | 85 | 1013.3 |
| 20260904111730 | 79 | 189 | 0.0 | 3.0 | 0.00 | 0.00 | 0.00 | 85 | 1013.4 |
| 20260904111527 | 78 | 113 | 2.0 | 4.0 | 0.00 | 0.00 | 0.00 | 84 | 1014.0 |
| 20260904110718 | 79 | 170 | 0.0 | 1.0 | 0.00 | 0.00 | 0.00 | 85 | 1013.3 |
| 20260904110026 | 78 | 131 | 0.0 | 2.0 | 0.00 | 0.00 | 0.00 | 84 | 1013.9 |
| 20260904104554 | 79 | 104 | 0.0 | 2.0 | 0.00 | 0.00 | 0.00 | 85 | 1013.2 |
| 20260904104523 | 78 | 111 | 1.0 | 3.0 | 0.00 | 0.00 | 0.00 | 84 | 1013.9 |
| 20260904103017 | 78 | 125 | 1.0 | 3.0 | 0.00 | 0.00 | 0.00 | 84 | 1013.8 |
| 20260904102414 | 79 | 141 | 0.0 | 6.0 | 0.00 | 0.00 | 0.00 | 85 | 1013.1 |
| 20260904101515 | 78 | 221 | 1.0 | 8.0 | 0.00 | 0.00 | 0.00 | 84 | 1013.7 |
| 20260904100314 | 79 | 129 | 0.0 | 6.0 | 0.00 | 0.00 | 0.00 | 85 | 1013.1 |
| 20260904100013 | 78 | 190 | 3.0 | 7.0 | 0.00 | 0.00 | 0.00 | 84 | 1013.6 |
| 20260904095326 | 79 | 145 | 1.0 | 5.0 | 0.00 | 0.00 | 0.00 | 85 | 1013.0 |
| 20260904094532 | 78 | 160 | 2.0 | 6.0 | 0.00 | 0.00 | 0.00 | 84 | 1013.7 |
| 20260904094257 | 79 | 74 | 0.0 | 4.0 | 0.00 | 0.00 | 0.00 | 85 | 1013.0 |
| 20260904093246 | 79 | 152 | 0.0 | 2.0 | 0.00 | 0.00 | 0.00 | 85 | 1013.0 |
| 20260904093051 | 78 | 185 | 0.0 | 6.0 | 0.00 | 0.00 | 0.00 | 84 | 1013.7 |
| 20260904092227 | 78 | 166 | 0.0 | 4.0 | 0.00 | 0.00 | 0.00 | 85 | 1012.9 |
| 20260904091526 | 78 | 110 | 0.0 | 3.0 | 0.00 | 0.00 | 0.00 | 84 | 1013.6 |
| 20260904090130 | 79 | 194 | 0.0 | 1.0 | 0.00 | 0.00 | 0.00 | 85 | 1013.1 |
| 20260904090025 | 78 | 131 | 0.0 | 7.0 | 0.00 | 0.00 | 0.00 | 84 | 1013.7 |
| 20260904085112 | 79 | 89 | 0.0 | 4.0 | 0.00 | 0.00 | 0.00 | 85 | 1013.0 |
| 20260904084523 | 78 | 90 | 1.0 | 4.0 | 0.00 | 0.00 | 0.00 | 85 | 1013.7 |
| 20260904084039 | 78 | 179 | 0.0 | 0.0 | 0.00 | 0.00 | 0.00 | 85 | 1013.0 |
| 20260904083035 | 79 | 150 | 0.0 | 1.0 | 0.00 | 0.00 | 0.00 | 85 | 1013.0 |
| 20260904083021 | 78 | 115 | 0.0 | 4.0 | 0.00 | 0.00 | 0.00 | 84 | 1013.6 |
| 20260904082006 | 79 | 178 | 0.0 | 3.0 | 0.00 | 0.00 | 0.00 | 84 | 1013.1 |
| 20260904081515 | 78 | 157 | 1.0 | 4.0 | 0.00 | 0.00 | 0.00 | 84 | 1013.7 |
| 20260904080945 | 79 | 103 | 0.0 | 0.0 | 0.00 | 0.00 | 0.00 | 84 | 1013.1 |
| 20260904080014 | 79 | 130 | 0.0 | 4.0 | 0.00 | 0.00 | 0.00 | 83 | 1013.9 |
| 20260904075913 | 79 | 100 | 0.0 | 4.0 | 0.00 | 0.00 | 0.00 | 83 | 1013.3 |
| 20260904074849 | 79 | 119 | 0.0 | 4.0 | 0.00 | 0.00 | 0.00 | 83 | 1013.3 |
| 20260904074533 | 79 | 158 | 2.0 | 6.0 | 0.00 | 0.00 | 0.00 | 82 | 1014.0 |
| 20260904073819 | 80 | 82 | 0.0 | 4.0 | 0.00 | 0.00 | 0.00 | 82 | 1013.3 |
| 20260904073049 | 79 | 207 | 1.0 | 6.0 | 0.00 | 0.00 | 0.00 | 81 | 1014.1 |
| 20260904072844 | 80 | 109 | 0.0 | 3.0 | 0.00 | 0.00 | 0.00 | 82 | 1013.4 |
| 20260904071847 | 80 | 236 | 0.0 | 3.0 | 0.00 | 0.00 | 0.00 | 82 | 1013.5 |
| 20260904071534 | 79 | 198 | 1.0 | 4.0 | 0.00 | 0.00 | 0.00 | 81 | 1014.2 |
| 20260904070031 | 79 | 167 | 0.0 | 6.0 | 0.00 | 0.00 | 0.00 | 81 | 1014.3 |
| 20260904064533 | 80 | 109 | 1.0 | 5.0 | 0.00 | 0.00 | 0.00 | 80 | 1013.7 |
| 20260904064528 | 80 | 110 | 2.0 | 7.0 | 0.00 | 0.00 | 0.00 | 80 | 1014.4 |
| 20260904063555 | 80 | 195 | 0.0 | 0.0 | 0.00 | 0.00 | 0.00 | 81 | 1013.8 |
| 20260904063024 | 80 | 115 | 1.0 | 9.0 | 0.00 | 0.00 | 0.00 | 80 | 1014.4 |
| 20260904061523 | 80 | 110 | 2.0 | 9.0 | 0.00 | 0.00 | 0.00 | 80 | 1014.4 |
| 20260904061356 | 80 | 98 | 1.0 | 6.0 | 0.00 | 0.00 | 0.00 | 80 | 1013.7 |
| 20260904060402 | 80 | 160 | 0.0 | 5.0 | 0.00 | 0.00 | 0.00 | 80 | 1013.7 |
| 20260904060020 | 80 | 182 | 1.0 | 6.0 | 0.00 | 0.00 | 0.00 | 79 | 1014.3 |
| 20260904054534 | 80 | 136 | 2.0 | 11.0 | 0.00 | 0.00 | 0.00 | 78 | 1014.3 |
| 20260904054245 | 81 | 265 | 1.0 | 9.0 | 0.00 | 0.00 | 0.00 | 79 | 1013.7 |
| 20260904053300 | 81 | 119 | 0.0 | 5.0 | 0.00 | 0.00 | 0.00 | 79 | 1013.6 |
| 20260904053032 | 80 | 101 | 1.0 | 7.0 | 0.00 | 0.00 | 0.00 | 79 | 1014.3 |
| 20260904052308 | 81 | 94 | 0.0 | 5.0 | 0.00 | 0.00 | 0.00 | 79 | 1013.6 |
| 20260904051531 | 80 | 115 | 0.0 | 8.0 | 0.00 | 0.00 | 0.00 | 78 | 1014.1 |
| 20260904051332 | 81 | 154 | 0.0 | 5.0 | 0.00 | 0.00 | 0.00 | 79 | 1013.5 |
| 20260904050329 | 81 | 139 | 2.0 | 9.0 | 0.00 | 0.00 | 0.00 | 78 | 1013.5 |
| 20260904050030 | 81 | 126 | 4.0 | 11.0 | 0.00 | 0.00 | 0.00 | 77 | 1014.2 |
| 20260904045338 | 82 | 68 | 1.0 | 9.0 | 0.00 | 0.00 | 0.00 | 77 | 1013.5 |
| 20260904044507 | 81 | 71 | 3.0 | 8.0 | 0.00 | 0.00 | 0.00 | 75 | 1014.1 |
| 20260904044347 | 82 | 136 | 2.0 | 7.0 | 0.00 | 0.00 | 0.00 | 76 | 1013.5 |
| 20260904043400 | 82 | 142 | 2.0 | 9.0 | 0.00 | 0.00 | 0.00 | 74 | 1013.4 |
| 20260904043004 | 82 | 117 | 4.0 | 11.0 | 0.00 | 0.00 | 0.00 | 73 | 1014.1 |
| 20260904042414 | 83 | 212 | 2.0 | 11.0 | 0.00 | 0.00 | 0.00 | 72 | 1013.4 |
| 20260904041528 | 83 | 200 | 3.0 | 13.0 | 0.00 | 0.00 | 0.00 | 71 | 1014.0 |
| 20260904041414 | 83 | 77 | 2.0 | 11.0 | 0.00 | 0.00 | 0.00 | 71 | 1013.3 |
| 20260904040359 | 83 | 163 | 1.0 | 9.0 | 0.00 | 0.00 | 0.00 | 69 | 1013.3 |
| 20260904040024 | 83 | 138 | 3.0 | 10.0 | 0.00 | 0.00 | 0.00 | 68 | 1013.9 |
| 20260904034522 | 83 | 146 | 3.0 | 9.0 | 0.00 | 0.00 | 0.00 | 68 | 1014.0 |
| 20260904033110 | 84 | 105 | 2.0 | 6.0 | 0.00 | 0.00 | 0.00 | 67 | 1013.2 |
| 20260904033016 | 84 | 132 | 3.0 | 8.0 | 0.00 | 0.00 | 0.00 | 67 | 1013.8 |
| 20260904032109 | 84 | 154 | 2.0 | 6.0 | 0.00 | 0.00 | 0.00 | 66 | 1012.9 |
| 20260904031509 | 84 | 160 | 4.0 | 7.0 | 0.00 | 0.00 | 0.00 | 66 | 1013.7 |
| 20260904031127 | 85 | 101 | 0.0 | 4.0 | 0.00 | 0.00 | 0.00 | 66 | 1012.9 |
| 20260904030146 | 85 | 207 | 1.0 | 5.0 | 0.00 | 0.00 | 0.00 | 65 | 1012.7 |
| 20260904030010 | 84 | 142 | 1.0 | 7.0 | 0.00 | 0.00 | 0.00 | 65 | 1013.4 |
| 20260904025149 | 85 | 147 | 2.0 | 7.0 | 0.00 | 0.00 | 0.00 | 65 | 1012.5 |
| 20260904024506 | 84 | 82 | 2.0 | 9.0 | 0.00 | 0.00 | 0.00 | 65 | 1013.1 |
| 20260904024120 | 85 | 126 | 1.0 | 7.0 | 0.00 | 0.00 | 0.00 | 65 | 1012.3 |
| 20260904023059 | 85 | 110 | 0.0 | 6.0 | 0.00 | 0.00 | 0.00 | 64 | 1012.3 |
| 20260904023006 | 84 | 106 | 0.0 | 8.0 | 0.00 | 0.00 | 0.00 | 63 | 1013.0 |